Regional Weather Roundup
Issued by NWS Newport/Morehead, NC

Current Version | Previous Version | Graphics & Text | Print | Product List | Glossary Off
Versions: 1 2 3 4 5 6 7 8 9 10 11 12 13 14 15 16 17 18 19 20 21 22 23 24 25 26 27 28 29 30 31 32 33 34 35 36 37 38 39 40 41 42 43 44 45 46 47 48 49 50
000 ASUS42 KMHX 291825 RWRMHX WEATHER ROUNDUP FOR EASTERN NORTH CAROLINA NATIONAL WEATHER SERVICE NEWPORT/MOREHEAD CITY NC 200 PM EDT FRI APR 29 2016 NOTE: "FAIR" INDICATES FEW OR NO CLOUDS BELOW 12,000 FEET WITH NO SIGNIFICANT WEATHER AND/OR OBSTRUCTIONS TO VISIBILITY NCZ015>017-031-032-045>047-102-103-291900- NORTH COAST CITY SKY/WX TMP DP RH WIND PRES REMARKS EDENTON CLOUDY 64 60 88 NW5 30.00R ELIZABETH CITY CLOUDY 63 57 81 N6 29.98S KITTY HAWK MOCLDY 64 56 74 N12 29.96R MANTEO NOT AVBL $$ NCZ045>047-081-094-103-104-291900- CENTRAL COAST CITY SKY/WX TMP DP RH WIND PRES REMARKS FRISCO MOSUNNY 69 61 75 VRB7 29.93F SWANQUARTER NOT AVBL $$ NCZ095-097-098-100-101-291900- SOUTHERN COAST CITY SKY/WX TMP DP RH WIND PRES REMARKS BEAUFORT CLOUDY 71 62 73 N8 29.96F CEDAR ISLAND NOT AVBL JACKSONVILLE CLOUDY 70 59 68 VRB6 29.97F PINEY ISLAND NOT AVBL WILMINGTON MOSUNNY 76 64 66 E10 29.95F $$ NCZ011>013-027>030-043-044-078>080-089-090>093-098-291900- COASTAL PLAIN CITY SKY/WX TMP DP RH WIND PRES REMARKS AHOSKIE CLOUDY 59 56 91 CALM 30.03R CLINTON MOSUNNY 73 62 69 CALM 29.99R ELIZABETHTOWN CLOUDY 80 58 46 E3 29.96S GOLDSBORO CLOUDY 68 64 88 N5 29.99R GREENVILLE CLOUDY 63 59 88 NE3 30.03R HAVELOCK CLOUDY 70 62 76 NE8 29.97F KENANSVILLE PTSUNNY 69 58 69 NE3 30.00R KINSTON CLOUDY 66 59 77 N3 30.00F NEW BERN CLOUDY 68 59 73 VRB5 29.99F RICHLANDS CLOUDY 71 60 68 VRB6 29.98F ROCKY MOUNT CLOUDY 63 57 81 N5 30.02R WASHINGTON CLOUDY 64 58 83 CALM 30.00R WHITEVILLE SUNNY 81 58 45 N5 29.96R $$ AMZ130-135-150-152-154-156-158-170-250-252-270-ANZ085-086-088-633-658-670-291900- MARINE OBSERVATIONS STATION/POSITION TIME TEMP WIND PRES WAVE SWELL AIR SEA DIR/SP/G HT/PER HT/PER (UTC) (F) (DEG/KT/KT) (MB) (FT/S) (FT/S) CHESAPEAKE LIGHT 1800 53 360/ 15/ 16 1016.2 64 E VA BEACH 1750 54 54 350/ 10/ 12 1013.7 4/ 6 3/ 6 DUCK 1800 56 67 350/ 15/ 16 1014.2 2 E DUCK 1711 58 N/A 4/ 7 OREGON INLET 1800 59 64 360/ 10/ 14 1013.7 13E OREGON INLT 1800 59 N/A 4/ 5 2/ 8 HATTERAS CG 1800 65 69 340/ 12/ 14 1013.2 DIAMOND BUOY 1750 65 74 350/ 16/ 17 1013.4 3/ 9 2/ 9 CAPE LOOKOUT 1800 69 360/ 6/ 9 1014.1 BEAUFORT LAB 1800 67 67 20/ 6/ 8 1013.5 30 SE NEW RVR IN 1725 67 N/A 3/ 6 27 SE WRIGHTSVLE 1808 67 69 60/ 12/ 16 1014.7 5 SE WRIGHTSVLE 1808 67 68 80/ 14/ 17 1015.2 225 S CAPE HAT 1750 71 71 200/ 14/ 16 1013.8 3/ 4 2/11 41 SE CHARLESTON 1750 72 74 30/ 8/ 8 1013.8 2/ 4 2/ 5 $$

USA.gov is the U.S. government's official web portal to all federal, state and local government web resources and services.